Wind_Speed
18 19 19 18 19 21 23 23 26 29 31 31 32 34 36 38 40 41 40 42 44 43 42 43 41 40 40 40 38 37 38 38 38 37 36 36 35 34 33 34 33 33 33
18 18 18 18 18 19 20 22 24 27 29 30 31 32 34 36 37 40 38 40 42 43 42 42 42 40 40 40 40 38 38 37 38 39 39 38 37 36 36 36 36 36 35
17 17 17 18 17 17 18 19 23 25 26 28 29 30 32 35 37 38 37 37 39 41 42 42 43 43 41 40 40 39 39 38 39 40 41 41 40 39 38 38 38 37 37
16 16 16 16 16 16 17 18 21 23 24 27 29 28 29 31 35 38 38 37 38 40 42 42 42 42 42 41 40 40 40 40 40 40 40 40 40 40 39 39 40 40 39
15 15 16 16 16 17 18 18 20 22 23 25 27 28 28 30 33 36 38 38 39 40 42 44 43 41 40 41 41 41 41 41 41 41 41 41 40 40 41 40 40 40 41
15 15 15 16 17 17 18 19 21 21 22 22 25 27 28 29 31 34 37 38 37 38 40 43 44 42 40 40 41 41 42 42 41 41 41 41 41 41 41 41 41 41 42
15 15 15 16 16 17 17 18 20 21 22 22 24 25 27 29 32 33 36 37 37 37 39 41 44 44 42 41 40 41 40 40 41 40 40 42 42 42 42 42 42 42 42
16 16 16 16 17 17 17 18 19 21 22 22 23 24 26 28 30 32 35 36 37 37 38 40 42 43 43 44 43 42 42 42 43 43 42 43 44 44 44 44 44 44 44
18 18 17 17 17 18 18 18 20 21 22 23 24 24 25 25 28 30 33 35 38 36 36 38 40 41 41 41 41 42 42 43 44 44 44 45 45 45 46 46 46 46 47
19 19 18 18 18 18 18 18 19 20 21 22 23 24 25 25 25 27 28 31 35 35 35 38 38 38 38 39 40 41 43 43 43 42 43 44 45 45 45 46 46 46 47
20 20 19 19 19 19 19 18 19 20 20 21 23 24 25 26 26 28 28 29 32 34 35 36 36 37 38 39 40 41 43 43 42 42 43 44 44 44 45 46 46 47 47
20 19 19 19 20 20 20 19 19 20 20 20 21 23 24 26 27 27 28 30 33 35 35 36 37 38 38 39 40 40 41 42 42 43 44 45 44 44 45 45 46 47 48
20 20 20 20 20 20 20 20 20 20 20 20 20 21 23 24 26 27 29 31 33 35 35 36 37 39 39 39 40 40 41 42 43 44 44 44 45 45 46 46 47 48 48
22 21 21 21 21 21 21 20 21 21 21 21 21 21 23 24 25 27 30 31 33 35 36 37 38 39 39 39 39 40 42 43 44 44 45 45 46 46 47 47 48 49 49
24 23 22 22 21 22 22 21 21 22 22 22 22 23 23 24 25 27 29 31 33 34 35 36 37 38 39 39 39 40 41 43 44 45 45 45 46 46 47 48 48 49 50
26 25 24 24 23 23 23 23 22 23 23 23 24 25 25 25 26 28 29 32 33 35 36 36 36 38 39 39 40 41 41 42 43 44 45 45 46 47 48 49 50 51 52
27 26 26 26 25 25 25 25 25 25 25 25 25 25 25 25 26 28 30 32 34 35 36 36 37 38 39 40 41 41 42 43 43 44 45 46 48 49 50 51 52 53 54
28 28 27 27 27 27 27 27 27 28 28 28 28 28 28 28 28 29 30 31 32 33 34 35 37 38 39 41 42 43 44 44 45 46 47 48 49 51 52 52 53 53 54
28 28 28 28 28 28 28 29 28 29 29 30 30 30 30 29 29 29 29 30 32 34 36 36 37 38 40 42 44 44 45 46 47 49 49 49 50 50 51 52 53 53 53
30 30 30 29 29 29 29 29 29 30 30 31 31 31 31 31 31 31 31 32 33 35 37 38 39 40 41 43 44 44 45 47 48 50 51 51 51 51 51 52 53 53 53
31 31 31 31 30 30 30 30 30 30 31 32 33 33 32 33 33 33 33 34 35 36 37 39 40 41 42 43 44 44 45 46 47 48 49 50 51 51 52 53 54 54 54
33 33 32 32 32 32 32 32 32 32 32 33 33 34 34 35 35 35 35 36 37 38 39 39 40 41 41 42 42 44 45 45 46 47 49 50 51 52 52 52 53 54 54
34 34 34 33 33 33 33 33 33 33 33 34 34 35 35 36 37 37 37 37 37 38 39 40 40 40 41 42 43 44 45 46 47 48 49 50 51 51 52 52 53 53 53
35 35 34 34 35 34 34 33 33 34 34 34 34 35 36 37 37 38 38 38 38 38 38 39 40 41 42 43 44 45 45 46 46 47 47 48 49 50 50 51 52 52 52
35 35 35 35 35 35 35 35 35 35 35 35 35 36 36 37 37 38 38 38 38 39 40 41 41 42 43 43 44 45 44 44 44 45 45 46 46 47 48 49 50 51 51
35 35 36 35 35 35 35 35 35 35 35 36 37 37 37 38 38 38 38 38 39 40 41 42 42 42 42 42 42 42 43 43 43 44 44 44 45 46 46 47 48 49 49
Wind_Direction
289 284 278 272 267 263 258 253 249 243 240 237 237 238 235 233 230 229 229 227 225 226 228 229 231 232 233 235 236 237 237 237 239 242 244 246 249 252 255 257 259 260 262
291 287 280 271 268 265 260 254 249 244 242 239 238 238 234 232 231 229 229 227 224 225 226 228 229 231 234 236 237 237 238 238 240 242 245 247 250 253 257 259 260 261 263
291 287 281 275 272 269 264 258 252 247 245 241 240 238 234 233 233 231 229 226 224 224 226 227 228 230 233 236 236 236 238 240 242 244 247 249 251 254 258 260 261 263 265
293 288 282 277 272 267 265 262 256 249 248 245 241 239 239 236 235 232 230 228 227 226 227 228 229 231 234 236 237 238 241 242 243 245 248 251 253 256 258 260 262 263 265
297 291 284 281 273 266 265 263 260 252 249 247 243 241 241 240 236 233 231 229 229 228 229 229 230 232 235 236 238 239 241 242 243 246 249 252 255 256 258 260 263 265 267
297 294 290 284 277 271 267 265 259 255 252 251 247 243 242 241 238 235 233 229 229 230 232 230 231 233 235 236 238 240 241 242 245 247 250 254 256 258 260 262 264 266 268
298 294 292 286 278 272 269 266 262 259 254 255 252 248 243 241 239 238 234 231 231 233 233 231 232 234 236 236 239 242 243 244 246 248 252 254 256 259 261 263 265 266 268
294 294 291 285 279 274 272 268 265 261 256 256 253 250 246 241 239 239 238 235 235 235 235 235 235 236 238 241 243 245 246 248 249 250 254 256 259 261 262 263 265 266 268
291 292 290 284 281 278 276 272 268 264 260 257 252 250 248 245 241 241 238 237 235 235 237 238 237 238 240 242 245 248 250 252 253 254 256 258 259 261 263 265 267 268 270
292 292 289 282 282 280 278 274 270 266 264 260 253 250 247 242 242 240 237 238 236 236 238 240 239 239 242 244 247 250 252 254 254 255 256 258 259 261 264 266 267 269 270
291 290 289 285 283 282 278 275 272 268 265 262 255 250 249 245 243 243 240 241 241 240 242 242 242 244 247 248 250 252 253 254 255 255 257 259 260 262 264 265 266 268 270
289 289 287 283 282 283 281 276 272 269 266 262 256 252 249 249 248 245 245 245 243 243 243 244 245 247 248 250 251 254 254 255 256 257 259 260 260 261 263 265 267 269 271
286 287 286 283 282 282 281 278 272 269 265 262 258 254 250 250 251 250 248 248 247 245 245 246 248 249 249 250 253 255 256 256 256 257 259 259 260 261 263 265 267 270 272
281 282 282 281 280 279 279 278 274 270 267 265 262 257 254 253 253 254 251 249 248 246 245 247 249 251 250 252 254 255 256 255 255 256 258 259 260 262 264 266 269 271 273
278 278 278 279 278 276 276 277 276 273 267 264 263 261 260 258 256 253 250 250 251 250 249 249 251 252 252 253 254 254 255 256 256 257 258 260 261 263 266 268 270 272 273
276 277 274 275 275 275 274 274 275 275 271 266 265 263 262 264 261 257 254 253 254 254 252 252 252 253 254 254 255 256 257 258 259 259 261 262 264 266 268 270 271 273 275
273 275 274 272 272 273 272 272 274 274 272 270 269 267 267 266 264 262 259 257 255 256 255 255 255 254 254 255 255 256 258 260 260 261 263 265 267 268 270 272 273 274 275
272 272 272 271 270 270 271 271 273 272 271 271 272 271 270 268 266 265 264 260 258 257 257 257 257 257 257 258 258 260 261 263 263 263 264 266 268 269 271 273 274 275 275
272 273 273 272 269 270 271 271 271 272 271 271 271 271 271 270 269 269 267 264 261 261 260 260 261 262 262 261 262 263 264 265 265 264 265 267 269 271 272 273 274 275 275
272 272 273 272 270 270 271 272 273 273 272 272 272 271 271 271 271 270 268 268 266 265 265 264 266 266 266 265 265 267 267 268 268 268 268 269 271 272 273 274 274 275 275
273 273 273 272 271 271 271 272 272 273 273 272 272 271 271 271 272 271 270 270 269 268 268 269 269 269 269 269 269 268 269 270 270 271 271 271 272 274 275 275 276 276 276
272 273 272 272 271 272 272 272 271 271 272 272 272 272 272 272 272 272 271 271 270 270 270 271 272 272 272 272 271 270 270 271 272 273 273 273 274 276 276 277 277 277 278
270 271 272 272 272 272 272 272 272 272 272 272 273 273 273 274 274 274 273 273 273 273 272 272 272 272 272 273 272 271 272 273 274 274 274 274 275 276 277 277 277 278 278
269 270 271 271 270 270 270 271 272 272 272 273 273 273 274 274 274 274 275 275 275 275 274 274 273 273 272 272 272 273 273 274 275 275 276 276 276 277 277 277 278 278 279
268 270 271 273 272 270 270 271 272 272 273 273 274 274 275 275 275 275 276 276 276 276 276 275 275 275 274 273 273 274 274 275 276 277 277 277 277 278 278 278 278 279 279
268 269 270 271 271 271 271 272 272 272 272 273 274 275 275 276 276 275 276 276 277 277 277 277 277 277 277 276 275 276 276 276 278 278 278 279 279 279 280 280 280 280 280
Height
5688 5686 5685 5684 5684 5685 5685 5686 5688 5690 5692 5695 5699 5702 5705 5709 5712 5716 5720 5726 5731 5737 5742 5748 5753 5757 5760 5764 5767 5771 5774 5778 5781 5784 5786 5788 5789 5791 5792 5793 5793 5794 5794
5683 5682 5680 5680 5679 5679 5679 5680 5681 5683 5686 5688 5691 5694 5697 5700 5704 5708 5713 5718 5723 5729 5734 5739 5744 5749 5752 5756 5760 5764 5767 5770 5773 5777 5779 5781 5783 5783 5784 5785 5786 5786 5786
5679 5677 5676 5675 5675 5674 5674 5675 5676 5677 5679 5682 5683 5686 5690 5693 5697 5700 5705 5710 5715 5720 5726 5731 5736 5741 5745 5749 5753 5756 5760 5763 5766 5769 5771 5773 5775 5776 5777 5777 5778 5778 5778
5675 5673 5672 5671 5670 5670 5669 5669 5670 5671 5673 5675 5678 5680 5683 5686 5690 5693 5697 5702 5708 5713 5718 5723 5728 5733 5737 5741 5745 5749 5752 5755 5758 5760 5763 5765 5766 5768 5769 5769 5769 5769 5769
5671 5669 5668 5666 5666 5665 5665 5664 5665 5666 5667 5669 5672 5674 5676 5679 5682 5686 5690 5695 5700 5705 5710 5715 5720 5724 5729 5733 5736 5740 5743 5746 5749 5751 5754 5756 5757 5758 5760 5760 5761 5761 5760
5667 5665 5664 5662 5662 5661 5660 5660 5660 5660 5661 5663 5665 5667 5669 5672 5675 5679 5683 5687 5692 5697 5702 5707 5711 5716 5720 5724 5728 5731 5734 5737 5740 5742 5744 5746 5748 5749 5750 5751 5751 5751 5751
5664 5662 5660 5659 5658 5657 5656 5656 5656 5656 5656 5657 5659 5661 5663 5665 5668 5671 5675 5680 5684 5689 5693 5698 5702 5707 5711 5714 5718 5721 5724 5727 5730 5732 5735 5737 5738 5739 5741 5741 5741 5741 5741
5660 5658 5656 5655 5654 5653 5652 5652 5651 5651 5651 5652 5654 5655 5657 5659 5662 5665 5668 5672 5677 5681 5685 5689 5693 5698 5702 5706 5709 5712 5715 5717 5720 5722 5724 5726 5728 5729 5730 5730 5731 5731 5730
5656 5654 5652 5651 5650 5649 5648 5647 5646 5646 5646 5647 5648 5649 5651 5653 5656 5658 5661 5665 5669 5674 5677 5681 5685 5689 5693 5696 5700 5703 5705 5707 5710 5712 5714 5716 5717 5718 5719 5719 5720 5720 5719
5651 5650 5648 5646 5645 5644 5643 5642 5641 5641 5641 5642 5643 5644 5645 5647 5649 5652 5654 5658 5662 5666 5669 5672 5676 5680 5683 5686 5689 5692 5695 5697 5699 5701 5703 5704 5706 5707 5707 5708 5708 5708 5707
5646 5644 5643 5642 5641 5639 5638 5637 5637 5636 5637 5637 5637 5638 5639 5641 5643 5645 5647 5650 5654 5657 5661 5664 5666 5669 5672 5676 5679 5681 5684 5686 5688 5690 5691 5693 5694 5695 5695 5695 5696 5696 5695
5640 5639 5638 5637 5636 5635 5634 5632 5632 5631 5631 5631 5632 5632 5633 5635 5636 5638 5640 5643 5646 5649 5651 5654 5657 5659 5662 5665 5668 5671 5673 5675 5677 5678 5680 5681 5682 5682 5683 5683 5683 5683 5682
5635 5634 5633 5631 5630 5630 5628 5627 5627 5627 5626 5626 5626 5627 5627 5628 5630 5631 5633 5635 5637 5639 5642 5645 5647 5650 5652 5655 5657 5660 5662 5663 5665 5667 5668 5669 5670 5670 5671 5671 5670 5670 5669
5628 5628 5627 5626 5625 5624 5623 5622 5621 5621 5621 5621 5621 5621 5622 5622 5623 5624 5626 5627 5629 5631 5633 5635 5638 5640 5642 5644 5646 5648 5650 5652 5653 5655 5656 5657 5657 5657 5657 5657 5657 5656 5656
5622 5621 5620 5619 5619 5618 5617 5617 5616 5615 5615 5615 5615 5616 5616 5616 5616 5616 5617 5619 5621 5622 5624 5626 5628 5630 5631 5633 5635 5637 5638 5640 5641 5642 5643 5644 5644 5644 5644 5644 5643 5643 5641
5615 5614 5613 5613 5612 5612 5611 5611 5610 5609 5609 5609 5609 5609 5609 5609 5609 5609 5610 5611 5612 5613 5614 5616 5618 5619 5621 5622 5624 5626 5627 5628 5629 5630 5631 5631 5631 5631 5631 5630 5629 5628 5627
5607 5607 5606 5605 5605 5605 5604 5604 5603 5603 5602 5602 5602 5601 5601 5601 5601 5601 5601 5602 5602 5603 5605 5606 5607 5609 5610 5611 5612 5614 5615 5616 5617 5617 5618 5618 5618 5617 5617 5616 5615 5613 5612
5599 5599 5598 5598 5597 5597 5597 5597 5596 5596 5595 5594 5594 5593 5593 5593 5593 5593 5593 5593 5594 5594 5595 5596 5597 5598 5598 5599 5601 5601 5603 5604 5604 5604 5604 5604 5604 5603 5602 5601 5600 5598 5596
5591 5590 5590 5589 5589 5589 5589 5588 5588 5587 5587 5586 5586 5585 5585 5584 5584 5584 5584 5584 5585 5585 5586 5586 5587 5587 5587 5587 5588 5588 5589 5590 5590 5590 5590 5590 5589 5589 5587 5587 5585 5584 5582
5582 5582 5581 5581 5580 5580 5580 5580 5579 5579 5578 5578 5577 5576 5576 5576 5575 5575 5575 5575 5575 5575 5575 5576 5576 5576 5576 5575 5575 5575 5575 5576 5576 5576 5576 5575 5574 5573 5572 5571 5569 5568 5567
5573 5572 5572 5572 5571 5571 5571 5570 5570 5569 5569 5568 5568 5567 5567 5566 5566 5566 5565 5565 5565 5565 5565 5565 5564 5564 5563 5562 5562 5562 5562 5562 5562 5562 5561 5560 5559 5558 5557 5556 5554 5553 5551
5563 5563 5563 5562 5562 5561 5561 5560 5560 5559 5559 5559 5558 5558 5557 5556 5556 5555 5555 5554 5554 5553 5553 5552 5552 5551 5550 5550 5549 5549 5548 5548 5548 5548 5547 5546 5545 5543 5542 5541 5539 5537 5536
5553 5553 5553 5552 5551 5551 5551 5550 5550 5549 5549 5548 5548 5547 5546 5546 5544 5544 5543 5542 5541 5541 5540 5540 5539 5539 5538 5537 5536 5536 5535 5534 5534 5533 5532 5531 5530 5529 5527 5526 5524 5522 5520
5543 5543 5542 5542 5541 5541 5540 5540 5539 5539 5538 5538 5537 5536 5536 5535 5533 5532 5531 5530 5530 5529 5528 5528 5527 5526 5525 5524 5523 5522 5521 5520 5519 5518 5517 5516 5515 5514 5512 5510 5508 5507 5505
5532 5532 5531 5531 5530 5530 5530 5529 5529 5528 5527 5527 5526 5525 5524 5523 5522 5521 5520 5519 5518 5517 5516 5516 5515 5514 5513 5511 5510 5508 5508 5507 5506 5504 5503 5502 5501 5499 5497 5495 5493 5491 5490
5521 5521 5521 5520 5520 5519 5519 5518 5518 5517 5516 5515 5514 5514 5513 5512 5511 5510 5509 5507 5506 5505 5504 5502 5501 5500 5498 5497 5496 5495 5494 5493 5492 5491 5490 5489 5487 5486 5484 5481 5479 5477 5475